Edwards AFB North Base, CA

4:55 AM PST on November 15, 2019 (GMT -0800)
Edwards AFB North Base

Weather History for K9L2 - September, 2019

Change the Weather History Date:

Friday, September 13, 2019

  Actual Average (KEDW) Record (KEDW)
Temperature  
Mean Temperature 74 °F -  
Max Temperature 96 °F 90 °F 104 °F (2000)
Min Temperature 51 °F 57 °F 48 °F (2005)
Cooling Degree Days 8    
Growing Degree Days 24 (Base 50)    
Moisture  
Dew Point 25 °F    
Average Humidity 17    
Maximum Humidity 34    
Minimum Humidity 7    
Precipitation  
Precipitation 0.00 in - - ()
Sea Level Pressure  
Sea Level Pressure 29.97 in    
Wind  
Wind Speed 3 mph ()    
Max Wind Speed 10 mph    
Max Gust Speed -    
Visibility 7.7 miles    
Events      
Averages and records for this station are not official NWS values.
T = Trace of Precipitation, MM = Missing Value Source: Averaged Metar Reports

Daily Weather History Graph

Daily Weather History Graph

Search for Another Location

Airport or City:

Astronomy

Sep. 13, 2019 Rise Set
Actual Time 6:32 AM PDT 7:01 PM PDT
Civil Twilight 6:07 AM PDT 7:26 PM PDT
Nautical Twilight 5:37 AM PDT 7:56 PM PDT
Astronomical Twilight 5:07 AM PDT 8:26 PM PDT
Moon 7:14 PM PDT (9/13) 5:58 AM PDT (9/13)
Length of Visible Light 13h 19m
Length of Day
12h 28m
Full, 100% of the Moon is Illuminated
Sep 13
Full
Sep 13
Full
Sep 21
Last Quarter
Sep 28
New
Oct 5
First Quarter

Hourly Weather History & Observations

Time (PDT) Temp. Dew Point Humidity Pressure Visibility Wind Dir Wind Speed Gust Speed Precip Events Conditions
12:58 AM 64.2 °F 24.6 °F 22% 29.98 in 10.0 mi West 8.1 mph - N/A   Clear
1:58 AM 61.3 °F 18.7 °F 19% 30.00 in 10.0 mi SE 3.5 mph - N/A   Clear
2:58 AM 55.6 °F 20.8 °F 26% 29.99 in 10.0 mi Calm Calm - N/A   Clear
3:58 AM 55.8 °F 23.0 °F 28% 29.99 in 10.0 mi Calm Calm - N/A   Clear
4:58 AM 52.5 °F 23.5 °F 32% 30.00 in 10.0 mi Calm Calm - N/A   Clear
5:58 AM 51.1 °F 23.7 °F 34% 30.01 in 10.0 mi ENE 3.5 mph - N/A   Clear
6:58 AM 51.6 °F 21.7 °F 31% 30.03 in 9.0 mi Calm Calm - N/A   Clear
7:58 AM 58.3 °F 24.3 °F 27% 30.05 in 9.0 mi Calm Calm - N/A   Clear
8:58 AM 64.0 °F 25.3 °F 23% 30.05 in 9.0 mi Calm Calm - N/A   Clear
9:58 AM 72.3 °F 27.9 °F 19% 30.05 in 8.0 mi SE 3.5 mph - N/A   Clear
10:58 AM 79.7 °F 24.6 °F 13% 30.04 in 7.0 mi Calm Calm - N/A   Clear
11:28 AM 84.2 °F 24.8 °F 11% 30.03 in 6.0 mi Calm Calm - N/A   Haze
11:43 AM 86.0 °F 24.8 °F 11% 30.02 in 7.0 mi Calm Calm - N/A   Clear
11:58 AM 88.0 °F 24.6 °F 10% 30.01 in 7.0 mi Calm Calm - N/A   Clear
12:28 PM 89.6 °F 21.2 °F 8% 30.01 in 6.0 mi SSE 4.6 mph - N/A   Haze
12:58 PM 91.9 °F 22.1 °F 8% 29.98 in 7.0 mi Calm Calm - N/A   Clear
1:58 PM 92.8 °F 22.8 °F 8% 29.96 in 6.0 mi Calm Calm - N/A   Haze
2:58 PM 96.1 °F 22.1 °F 7% 29.94 in 6.0 mi South 4.6 mph - N/A   Haze
3:13 PM 95.0 °F 21.2 °F 7% 29.92 in 7.0 mi SE 5.8 mph - N/A   Clear
3:28 PM 95.0 °F 21.2 °F 7% 29.92 in 6.0 mi Calm Calm - N/A   Haze
3:58 PM 94.8 °F 21.2 °F 7% 29.92 in 6.0 mi SE 5.8 mph - N/A   Haze
4:58 PM 95.7 °F 21.9 °F 7% 29.91 in 6.0 mi Calm Calm - N/A   Haze
5:58 PM 95.0 °F 21.2 °F 7% 29.90 in 6.0 mi South 5.8 mph - N/A   Haze
6:58 PM 90.9 °F 20.8 °F 8% 29.91 in 7.0 mi SSW 5.8 mph - N/A   Clear
7:13 PM 87.8 °F 19.4 °F 8% 29.91 in 6.0 mi SSW 5.8 mph - N/A   Haze
7:28 PM 84.2 °F 19.4 °F 9% 29.91 in 7.0 mi SW 5.8 mph - N/A   Clear
7:58 PM 84.7 °F 34.9 °F 17% 29.93 in 8.0 mi WSW 10.4 mph - N/A   Clear
8:58 PM 77.2 °F 37.4 °F 24% 29.94 in 8.0 mi West 8.1 mph - N/A   Clear
9:58 PM 74.3 °F 38.5 °F 27% 29.94 in 8.0 mi ESE 4.6 mph - N/A   Clear
10:58 PM 71.1 °F 32.4 °F 24% 29.94 in 9.0 mi SSE 9.2 mph - N/A   Clear
11:58 PM 70.5 °F 32.9 °F 25% 29.94 in 9.0 mi South 8.1 mph - N/A   Clear